Location: Newark
(48.1500°N, 2.9667°W)
Time: 04:21:30
(UTC+00:00)

Transit 2A - Pass Details

Date: 24 January 2020
Orbit: 600 x 959 km, 66.7° (Epoch: 19 February)

Event Time Altitude Azimuth Distance (km) Brightness Sun altitude
Rises 03:39:02 0° 330° (NNW) 2,927 - -41.4°
Reaches altitude 10° 03:41:32 10° 342° (NNW) 2,055 - -41.0°
Maximum altitude 03:45:32 28° 42° (NE) 1,270 - -40.4°
Exits shadow 03:48:47 15° 94° (E) 1,879 8.5 -39.8°
Drops below altitude 10° 03:49:51 10° 102° (ESE) 2,216 8.9 -39.7°
Sets 03:52:37 0° 113° (ESE) 3,202 9.8 -39.2°
